ANJALA Weather Reports


Display with metric or nautical units.
time (UTC)temp
F
wind
direction
speed
MPH
gust
MPH
rain 1hr
in
rain 24hr
in
rain mn
in
humidity
%
barometer
mb
20260906054452 50 0.0 0.0 0.00 0.00 0.00 78
20260906050452 49 0.0 0.0 0.00 0.00 0.00 78
20260906044453 50 0.0 0.0 0.00 0.00 0.00 80
20260906042452 50 0.0 0.0 0.00 0.00 0.00 86
20260906040452 51 0.0 0.0 0.00 0.00 0.00 82
20260906032451 52 0.0 0.0 0.00 0.00 0.00 78
20260906030452 51 0.0 0.0 0.00 0.00 0.00 80
20260906024452 52 0.0 0.0 0.00 0.00 0.00 82
20260906022452 52 0.0 0.0 0.00 0.00 0.00 86
20260906014452 52 0.0 0.0 0.00 0.00 0.00 88
20260906010452 53 0.0 0.0 0.00 0.00 0.00 84
20260906004453 53 0.0 0.0 0.00 0.00 0.00 86
20260906002451 53 0.0 0.0 0.00 0.00 0.00 93
20260906000451 52 0.0 0.0 0.00 0.00 0.00 95
20260905234451 53 0.0 0.0 0.00 0.00 0.00 94
20260905232451 53 0.0 0.0 0.00 0.00 0.00 94
20260905230451 52 0.0 0.0 0.00 0.00 0.00 94
20260905224120 52 0.0 0.0 0.00 0.00 0.00 94
20260905222450 52 0.0 0.0 0.00 0.00 0.00 94
20260905220450 52 0.0 0.0 0.00 0.00 0.00 94
20260905214451 52 0.0 0.0 0.00 0.00 0.00 93
20260905212451 53 0.0 0.0 0.00 0.00 0.00 92
20260905210450 52 0.0 0.0 0.00 0.00 0.00 93
20260905204450 52 0.0 0.0 0.00 0.00 0.00 93
20260905202450 52 0.0 0.0 0.00 0.00 0.00 92
20260905200451 52 0.0 0.0 0.00 0.00 0.00 91
20260905194119 52 0.0 0.0 0.00 0.00 0.00 92
20260905192451 52 0.0 0.0 0.00 0.00 0.00 91
20260905190451 53 0.0 0.0 0.00 0.00 0.00 87
20260905184452 54 0.0 0.0 0.00 0.00 0.00 86
20260905182450 54 0.0 0.0 0.00 0.00 0.00 85
20260905180448 54 0.0 0.0 0.00 0.00 0.00 87
20260905174449 53 0.0 0.0 0.00 0.00 0.00 90
20260905172449 54 0.0 0.0 0.00 0.00 0.00 87
20260905170449 55 0.0 0.0 0.00 0.00 0.00 85
20260905164450 56 0.0 0.0 0.00 0.00 0.00 76
20260905162119 57 0.0 0.0 0.00 0.00 0.00 74
20260905160449 58 0.0 0.0 0.00 0.00 0.00 69
20260905154119 60 0.0 0.0 0.00 0.00 0.00 67
20260905152451 62 0.0 0.0 0.00 0.00 0.00 61
20260905150449 61 0.0 0.0 0.00 0.00 0.00 64
20260905144118 62 0.0 0.0 0.00 0.00 0.00 62
20260905142118 62 0.0 0.0 0.00 0.00 0.00 60
20260905140450 63 0.0 0.0 0.00 0.00 0.00 56
20260905134449 62 0.0 0.0 0.00 0.09 0.00 55
20260905132450 64 0.0 0.0 0.00 0.09 0.00 52
20260905130452 63 0.0 0.0 0.00 0.09 0.00 55
20260905124449 63 0.0 0.0 0.00 0.15 0.00 50
20260905122449 64 0.0 0.0 0.00 0.15 0.00 52
20260905120449 63 0.0 0.0 0.00 0.15 0.00 53
20260905104448 59 0.0 0.0 0.00 0.15 0.00 82
20260905102449 59 0.0 0.0 0.00 0.15 0.00 83
20260905100448 59 0.0 0.0 0.00 0.15 0.00 76
20260905094447 61 0.0 0.0 0.00 0.15 0.00 71
20260905092448 60 0.0 0.0 0.00 0.15 0.00 75
20260905090449 59 0.0 0.0 0.00 0.15 0.00 73
20260905084449 59 0.0 0.0 0.00 0.15 0.00 83
20260905082451 57 0.0 0.0 0.00 0.15 0.00 89
20260905080447 56 0.0 0.0 0.00 0.15 0.00 94
20260905072447 53 0.0 0.0 0.00 0.15 0.00 100
20260905064448 52 0.0 0.0 0.00 0.15 0.00 100